Regional Weather Roundup
Issued by NWS

Home | Current Version | Previous Version | Text Only | Print | Product List | Glossary On
Versions: 1 2 3 4 5 6 7 8 9 10 11 12 13 14 15 16 17 18 19 20 21 22 23 24 25 26 27 28 29 30 31 32 33 34 35 36 37 38 39 40 41 42 43 44 45 46 47 48 49 50
000
ASUS43 KFSD 180210
RWRSD

WEATHER ROUNDUP FOR SOUTH DAKOTA
NATIONAL WEATHER SERVICE SIOUX FALLS SD
800 PM CST SUN DEC 17 2017

NOTE: "FAIR" INDICATES FEW OR NO CLOUDS BELOW 12,000 FEET WITH NO
SIGNIFICANT WEATHER AND/OR OBSTRUCTIONS TO VISIBILITY.


SDZ001>005-009-010-012>017-180300-
NORTHWEST AND NORTH CENTRAL SOUTH DAKOTA

CITY           SKY/WX    TMP DP  RH WIND       PRES   REMARKS
BUFFALO          N/A     31  24  75 SW12      29.72S WCI  22
FAITH            N/A     30  25  81 SW9       29.81S WCI  22
MOBRIDGE       PTCLDY    31  26  82 S3        29.81S
$$

SDZ012>016-024>037-041>051-057-063-072>074-180300-
SOUTHWEST AND SOUTH CENTRAL SOUTH DAKOTA

CITY           SKY/WX    TMP DP  RH WIND       PRES   REMARKS
RAPID CTY ARPT CLOUDY    30  22  72 W6        29.84R WCI  24
PIERRE         CLEAR     32  29  88 S7        29.86S WCI  26
CUSTER         CLOUDY    24  14  65 W12       29.80R WCI  13
ELLSWORTH AFB  CLOUDY    28  22  77 NW5       29.82S WCI  23
PHILIP         CLEAR     30  27  88 S3        29.84R
PINE RIDGE     CLEAR     25  22  88 W5        29.86R WCI  19
SPEARFISH      FAIR      34  16  47 W13G18    29.82S WCI  25
WINNER         FAIR      36  29  75 S12       29.89S
$$

SDZ004>011-016>023-039-040-180300-
NORTHEAST SOUTH DAKOTA

CITY           SKY/WX    TMP DP  RH WIND       PRES   REMARKS
ABERDEEN       CLOUDY    33  29  85 S9        29.87F WCI  25
WATERTOWN      CLOUDY    32  31  96 S7        29.88F WCI  26
BROOKINGS      CLOUDY    33  27  78 S7        29.92F WCI  27
SISSETON         N/A     32  30  92 S7        29.88S WCI  26
$$

SDZ017-020-022-023-036>040-048>070-180300-
SOUTHEAST SOUTH DAKOTA

CITY           SKY/WX    TMP DP  RH WIND       PRES   REMARKS
SIOUX FALLS    CLOUDY    32  29  88 SW3       29.95S
HURON          CLOUDY    38  32  79 MISG      29.90S
CHAMBERLAIN    CLOUDY    37  33  85 S7        29.90S
MITCHELL       CLOUDY    37  29  72 S7        29.94S
YANKTON        CLEAR     30  26  85 SW5       29.98R WCI  25
$$

ABBREVIATIONS USED IN REMARKS
   TC - TEMPERATURE IN CELSIUS
  WCI - WIND CHILL INDEX
   HX - HEAT INDEX
  VSB - VISIBILITY





USA.gov is the U.S. government's official web portal to all federal, state and local government web resources and services.